Probability
0 0 0 0 0 0 0 0 0 0 0 0 0 0 0 0 0 0 0 0 0 0 1 3 6 9 16 27 37 41 40 33 23 18 16 10 4 2 4 6 5 3 4
0 0 0 0 0 0 0 0 0 0 0 0 0 0 0 0 0 0 0 0 0 0 1 3 5 7 11 17 25 30 32 29 24 20 16 11 6 4 7 9 7 6 7
0 0 0 0 0 0 0 0 0 0 0 0 0 0 0 0 0 0 0 0 0 0 1 2 4 5 6 8 12 16 18 20 24 23 17 12 9 8 10 10 10 9 8
0 0 0 0 0 0 0 0 0 0 0 0 0 0 0 0 0 0 0 0 0 0 0 1 3 3 4 5 5 6 8 12 19 21 17 14 12 11 11 10 10 10 9
0 0 0 0 0 0 0 0 0 0 0 0 0 0 0 0 0 0 0 0 0 0 0 0 1 1 2 2 1 1 3 7 13 16 15 13 11 10 9 9 9 10 10
0 0 0 0 0 0 0 0 0 0 0 0 0 0 0 0 0 0 0 0 0 0 0 0 0 0 1 1 0 0 1 3 7 10 10 8 6 6 8 8 9 8 7
0 0 0 0 0 0 0 0 0 0 0 0 0 0 0 0 0 0 0 0 0 0 0 0 0 0 0 0 0 0 0 0 2 4 4 3 3 5 7 8 8 6 4
0 0 0 0 0 0 0 0 0 0 0 0 0 0 0 0 0 0 0 0 0 0 0 0 0 0 0 0 0 0 0 0 0 1 1 1 1 4 7 7 5 3 2
0 0 0 0 0 0 0 0 0 0 0 0 0 0 0 0 0 0 0 0 0 0 0 0 0 0 0 0 0 0 0 0 0 0 0 0 0 2 4 5 3 1 1
0 0 0 0 0 0 0 0 0 0 0 0 0 0 0 0 0 0 0 0 0 0 0 0 0 0 0 0 0 0 0 0 0 0 0 0 0 0 1 2 2 1 0
0 0 0 0 0 0 0 0 0 0 0 0 0 0 0 0 0 0 0 0 0 0 0 0 0 0 0 0 0 0 0 0 0 0 0 0 0 1 1 0 1 1 1
0 0 0 0 0 0 0 0 0 0 0 0 0 0 0 0 0 0 0 0 0 0 0 0 0 0 0 0 0 0 0 0 0 0 0 0 0 1 2 1 1 1 2
0 0 0 0 0 0 0 0 0 0 0 0 0 0 0 0 0 0 0 0 0 0 0 0 0 0 0 0 0 0 0 0 0 0 0 0 0 2 2 2 1 1 1
0 0 0 0 0 0 0 0 0 0 0 0 0 0 0 0 0 0 0 0 0 0 0 0 0 0 0 0 0 0 0 0 0 0 0 0 0 1 2 1 1 0 0
0 0 0 0 0 0 0 0 0 0 0 0 0 0 0 0 0 0 0 0 0 0 0 0 0 0 0 0 0 0 0 0 0 0 0 0 0 1 1 0 0 0 0
0 0 0 0 0 0 0 0 0 0 0 0 0 0 0 0 0 0 0 0 0 0 0 0 0 0 0 0 0 0 0 0 0 0 0 0 0 0 0 0 0 0 0
0 0 0 0 0 0 0 0 0 0 0 0 0 0 0 0 0 0 0 0 0 0 0 0 0 0 0 0 0 0 0 0 0 0 0 0 0 0 0 0 0 0 0
0 0 0 0 0 0 0 0 0 0 0 0 0 0 0 0 0 0 0 0 0 0 0 0 0 0 0 0 0 0 0 0 0 0 0 0 0 0 0 0 0 0 0
0 0 0 0 0 0 0 0 0 0 0 0 0 0 0 0 0 0 0 0 0 0 0 0 0 0 0 0 0 0 0 0 0 0 0 0 0 0 0 0 0 0 0
0 0 0 0 0 0 0 0 0 0 0 0 0 0 0 0 0 0 0 0 0 0 0 0 0 0 0 0 0 0 0 0 0 0 0 0 0 0 0 0 0 0 0
0 0 0 0 0 0 0 0 0 0 0 0 0 0 0 0 0 0 0 0 0 0 0 0 0 0 0 0 0 0 0 0 0 0 0 0 0 0 0 0 0 0 0
0 0 0 0 0 0 0 0 0 0 0 0 0 0 0 0 0 0 0 0 0 0 0 0 0 0 0 0 0 0 0 0 0 0 0 0 0 0 0 0 0 0 0
0 0 0 0 0 0 0 0 0 0 0 0 0 0 0 0 0 0 0 0 0 0 0 0 0 0 0 0 0 0 0 0 0 0 0 0 0 0 0 0 0 0 0
0 0 0 0 0 0 0 0 0 0 0 0 0 0 0 0 0 0 0 0 0 0 0 0 0 0 0 0 0 0 0 0 0 0 0 0 0 0 0 0 0 0 0
0 0 0 0 0 0 0 0 0 0 0 0 0 0 0 0 0 0 0 0 0 0 0 0 0 0 0 0 0 0 0 0 0 0 0 0 0 0 0 0 0 0 0
0 0 0 0 0 0 0 0 0 0 0 0 0 0 0 0 0 0 0 0 0 0 0 0 0 0 0 0 0 0 0 0 0 0 0 0 0 0 0 0 0 0 0
Wind_Speed
4 4 5 5 6 6 5 6 7 7 7 7 8 8 8 8 8 7 7 7 7 6 6 6 6 6 5 6 6 7 8 8 9 6 4 6 8 8 8 9 9 9 10
4 4 5 5 5 6 6 6 7 7 7 8 8 8 8 8 8 8 7 7 7 7 7 6 6 5 6 6 6 7 7 8 8 8 6 6 8 8 8 8 7 8 7
4 5 5 5 6 6 6 6 7 7 7 8 7 8 8 8 8 8 7 7 7 7 7 7 6 6 6 5 6 6 6 7 7 7 6 5 5 6 7 8 8 6 7
4 5 5 5 5 6 6 7 7 7 7 8 8 8 8 8 8 9 9 8 7 6 6 6 6 6 6 6 5 6 6 6 7 6 6 5 5 6 7 7 7 6 7
5 5 5 5 5 5 6 6 6 7 7 7 8 8 8 7 8 11 11 9 8 7 6 6 5 5 6 6 5 5 6 6 6 6 6 6 6 5 7 7 7 6 6
5 5 4 5 5 5 6 6 6 7 7 7 8 8 8 6 9 12 12 10 8 7 7 6 5 4 4 5 6 7 7 7 7 7 7 7 8 7 6 7 7 7 5
5 5 4 5 5 5 5 6 6 7 7 8 8 8 8 7 9 12 13 11 8 6 7 6 5 4 6 5 4 6 6 7 8 8 8 9 8 8 9 9 8 7 5
5 4 4 4 5 5 5 6 6 6 6 7 7 8 8 6 8 12 14 11 7 6 6 6 6 5 5 7 6 5 4 4 5 7 7 7 6 6 7 6 6 6 5
5 4 4 4 4 5 5 6 6 6 7 7 7 7 8 7 6 11 13 8 6 6 5 5 5 5 5 7 7 5 4 4 4 5 5 4 5 6 6 5 6 7 6
5 5 5 5 5 6 6 6 5 6 6 7 6 7 7 8 6 9 12 6 6 5 5 4 3 5 7 8 7 5 4 4 3 3 5 6 6 8 10 8 7 7 6
5 6 6 6 7 6 6 6 6 6 6 7 7 6 6 6 5 5 9 6 6 6 5 4 3 5 7 7 7 5 4 5 4 3 3 3 4 5 6 6 6 7 7
6 7 8 8 7 6 7 7 6 6 7 7 6 6 4 3 3 4 7 7 9 7 5 4 3 6 6 7 5 4 5 5 3 2 2 2 2 3 3 4 4 4 4
8 9 9 9 8 8 8 8 7 6 6 6 5 5 4 4 2 5 7 7 7 6 4 5 6 6 6 3 2 3 4 2 1 1 1 1 1 3 4 4 6 7 8
10 10 9 9 9 9 7 7 7 7 6 6 5 5 5 4 4 3 3 3 5 5 4 3 4 4 3 2 2 1 1 2 1 0 1 1 2 3 4 5 6 7 7
10 10 10 10 9 9 9 8 9 8 7 7 6 5 6 5 2 3 5 6 6 6 6 5 4 2 1 1 0 1 1 1 1 1 1 2 3 3 4 4 5 5 5
10 10 8 8 8 8 8 8 11 12 9 11 11 9 7 7 5 5 7 8 8 8 7 5 4 3 2 1 0 1 1 1 1 1 2 3 3 4 5 4 5 6 7
10 10 8 8 8 8 8 8 8 9 14 14 15 15 15 11 9 9 9 9 9 8 7 6 4 4 3 2 2 2 2 2 2 2 2 3 4 4 5 5 5 6 6
11 9 9 8 8 9 9 9 8 9 8 8 13 17 17 16 14 12 9 7 8 8 7 6 5 4 4 4 3 3 3 3 3 3 3 3 4 4 5 5 5 6 6
10 8 8 9 9 9 9 9 9 10 9 9 8 9 14 14 13 12 10 9 8 7 7 7 6 6 5 5 4 4 4 4 4 4 4 4 4 4 5 5 5 7 6
9 10 11 10 9 9 8 8 9 9 9 9 9 9 7 9 9 10 10 10 9 8 8 7 7 7 6 6 6 5 6 6 6 6 5 5 5 5 5 6 6 7 6
10 11 12 10 9 9 9 9 9 9 9 9 9 9 9 9 10 10 10 10 10 10 9 8 8 8 8 7 7 8 9 7 7 7 7 7 6 6 6 6 7 6 6
10 11 11 11 10 9 10 10 10 10 10 11 10 9 10 10 10 10 10 10 10 10 9 9 8 8 8 8 9 9 9 9 9 8 8 8 7 7 7 7 7 6 7
11 12 12 11 11 11 11 10 10 10 10 10 10 10 8 9 11 11 11 11 10 10 10 10 10 9 9 9 9 10 10 10 9 9 9 9 9 8 8 8 9 9 8
11 12 12 12 11 11 12 12 11 11 12 11 11 10 10 10 11 12 12 11 11 11 11 11 12 14 16 12 10 10 11 10 10 10 13 10 10 9 9 9 9 11 9
10 11 11 11 11 11 12 12 12 13 13 12 12 11 11 11 11 11 11 11 13 12 14 14 12 14 18 20 16 13 11 10 9 9 11 11 12 11 11 11 10 10 10
10 10 10 10 10 11 11 12 12 13 13 12 13 13 13 13 13 12 12 11 11 12 13 13 16 18 19 18 20 19 15 15 14 11 10 11 12 11 12 10 12 11 11
Wind_Direction
305 318 319 334 334 331 335 339 333 335 339 344 344 342 345 344 341 338 332 326 313 303 287 277 269 262 251 240 232 230 227 225 234 232 204 189 194 210 197 209 208 198 194
290 300 308 324 321 325 337 336 333 337 337 338 341 340 346 345 343 340 332 327 322 315 301 286 276 267 259 251 240 233 229 224 227 228 210 198 202 204 201 201 201 201 198
272 286 302 317 323 330 331 335 329 333 331 332 336 340 342 341 338 335 331 325 319 316 310 300 291 281 270 258 251 243 234 227 222 226 214 200 202 199 197 199 198 196 198
266 278 298 313 320 324 332 328 326 329 328 332 333 334 338 335 336 337 331 322 317 316 308 300 294 291 288 281 264 253 243 232 221 222 217 198 195 197 196 195 192 189 187
265 276 293 305 309 315 320 320 318 319 321 328 325 327 334 332 347 340 329 322 319 316 308 303 307 315 313 301 289 275 257 240 225 218 217 205 196 188 201 196 193 180 176
268 277 288 294 305 308 318 321 321 319 321 324 321 327 325 334 349 332 325 319 319 314 311 307 304 284 292 281 275 275 272 259 242 225 219 214 206 198 198 197 188 177 175
275 280 284 292 302 309 316 314 314 313 318 317 319 322 320 338 345 330 327 314 311 316 313 308 309 319 308 302 275 252 248 247 253 250 232 223 211 201 195 197 194 180 166
273 279 281 283 289 295 301 307 310 314 316 314 316 317 314 327 343 328 323 302 306 311 308 305 301 308 333 329 308 288 279 257 246 242 240 234 219 200 196 193 180 153 129
275 273 270 269 277 289 299 307 315 315 314 315 318 310 310 317 348 333 324 313 314 317 314 314 319 314 350 323 295 287 282 272 239 237 246 227 194 182 170 163 166 162 149
266 259 259 261 268 276 288 298 305 304 306 306 309 310 310 311 347 333 328 315 319 322 319 317 338 337 338 323 299 294 289 292 278 218 198 187 190 182 178 183 177 167 148
257 252 250 250 257 266 276 280 285 291 298 304 310 304 301 308 315 322 328 318 321 316 319 323 340 355 335 324 307 302 313 307 284 251 214 189 181 179 182 184 184 173 159
249 246 247 247 250 252 253 265 273 279 283 290 299 308 303 294 298 321 318 315 316 307 312 317 344 350 329 320 314 343 325 298 272 233 208 184 174 167 155 153 151 139 131
251 247 248 250 246 247 252 256 261 263 272 287 294 301 306 309 275 231 265 283 295 296 310 332 321 315 304 294 5 328 304 292 282 220 175 155 132 124 120 116 110 104 98
261 260 255 253 250 242 240 250 254 260 265 273 282 290 300 295 294 306 297 276 258 262 277 265 246 266 282 306 301 309 347 360 345 44 102 101 109 123 128 129 126 122 110
271 268 265 259 257 258 248 242 248 249 253 262 275 278 285 289 344 350 309 313 322 328 316 286 272 264 258 275 14 52 43 40 60 80 113 119 120 121 124 127 131 127 125
281 277 272 267 259 256 257 248 227 237 233 226 239 257 264 254 267 263 272 283 290 294 287 267 266 264 264 259 213 121 93 86 86 101 114 120 124 125 124 124 132 132 133
291 286 281 274 268 260 257 258 260 233 226 233 233 232 240 250 242 246 258 273 276 272 262 258 254 251 246 234 219 190 159 142 131 125 119 119 122 125 129 131 133 132 133
309 299 290 281 273 267 263 258 258 263 252 237 225 225 228 233 236 238 242 258 253 234 247 254 250 244 237 229 217 197 177 167 158 149 139 134 136 136 136 140 141 141 139
327 318 311 299 287 276 269 263 258 256 257 257 249 215 214 222 226 229 222 236 250 249 242 243 244 240 233 226 219 208 197 187 176 165 157 154 155 152 147 146 138 138 148
334 328 318 306 296 288 278 270 263 258 255 255 251 248 212 201 219 215 212 225 237 242 242 240 237 236 233 227 217 210 207 196 187 183 173 172 170 168 161 159 157 161 168
339 338 332 319 313 306 298 288 280 272 265 260 257 251 231 226 234 236 228 223 228 233 233 233 231 228 228 226 221 215 215 206 196 192 183 181 179 177 175 174 172 171 165
344 344 342 339 332 326 318 306 297 289 282 275 271 257 212 230 244 242 237 233 229 229 229 226 226 224 221 220 221 219 216 213 203 197 192 187 184 185 184 181 178 175 172
348 347 347 346 342 337 328 323 316 308 300 291 284 277 252 239 243 244 243 239 234 228 223 221 223 221 220 220 221 223 222 216 209 203 199 193 192 191 190 189 187 185 185
350 349 348 348 348 346 343 339 333 327 319 311 302 292 282 269 259 254 250 245 237 230 223 219 221 221 218 217 218 220 225 224 215 209 206 203 198 197 196 195 195 195 196
348 348 347 348 348 346 344 342 340 338 332 326 320 312 303 293 281 270 261 253 245 236 229 222 220 222 222 218 216 217 212 209 219 217 205 207 206 203 201 199 198 197 198
341 342 342 342 343 343 342 340 339 338 334 332 329 325 319 311 302 291 279 268 257 247 239 230 225 221 219 219 219 215 199 191 200 216 219 209 208 206 203 204 202 202 201